Location: Staunton
(38.1490°N, 79.0720°W)
Time: 14:47:58
(UTC-04:00)

ISS - Pass Details

Date: 23 July 2017
Orbit: 400 x 408 km, 51.6° (Epoch: 21 July)

Event Time Altitude Azimuth Distance (km) Brightness Sun altitude
Rises 23:31:56 0° 275° (W) 2,304 0.5 -26.4°
Reaches altitude 10° 23:34:40 10° 300° (WNW) 1,448 -0.3 -26.7°
Maximum altitude 23:36:38 15° 338° (NNW) 1,185 -0.6 -26.9°
Drops below altitude 10° 23:38:37 10° 16° (NNE) 1,451 -0.5 -27.1°
Sets 23:41:22 0° 41° (NE) 2,312 0.3 -27.3°
